This is the latest recevied weather packets stored in our database for station/object K7D3. If no packets are shown the sender has not sent any weather packets the latest 10 day(s).
| Time | Temp. | Humidity | Pressure | Rain* | Wind** | Luminosity | Snow |
|---|---|---|---|---|---|---|---|
| 1778170723 | 7.22° C | 51% | - | 0 mm | 3.58 m/s, 301° | - | - |
| 1778170244 | 6.67° C | 50% | - | 0 mm | 4.02 m/s, 349° | - | - |
| 1778169757 | 7.22° C | 51% | - | 0 mm | 0.45 m/s, 342° | - | - |
| 1778169278 | 7.22° C | 50% | - | 0 mm | 2.68 m/s, 333° | - | - |
| 1778168799 | 6.67° C | 52% | - | 0 mm | 4.02 m/s, 336° | - | - |
| 1778168316 | 7.22° C | 55% | - | 0 mm | 0.89 m/s, 8° | - | - |
| 1778167837 | 7.22° C | 56% | - | 0 mm | 2.24 m/s, 333° | - | - |
| 1778167358 | 6.67° C | 54% | - | 0 mm | 3.58 m/s, 350° | - | - |
| 1778166876 | 6.67° C | 56% | - | 0 mm | 3.58 m/s, 312° | - | - |
| 1778166392 | 6.67° C | 57% | - | 0 mm | 2.68 m/s, 346° | - | - |
| 1778165913 | 6.67° C | 51% | - | 0 mm | 3.58 m/s, 290° | - | - |
| 1778165429 | 6.67° C | 47% | - | 0 mm | 3.58 m/s, 4° | - | - |
| 1778164950 | 7.22° C | 48% | - | 0 mm | 3.13 m/s, 326° | - | - |
| 1778164471 | 7.22° C | 49% | - | 0 mm | 3.13 m/s, 309° | - | - |
| 1778163988 | 7.22° C | 54% | - | 0 mm | 0.45 m/s, 257° | - | - |
| 1778163509 | 7.22° C | 52% | - | 0 mm | 2.68 m/s, 343° | - | - |
| 1778163030 | 7.22° C | 48% | - | 0 mm | 3.58 m/s, 347° | - | - |
| 1778162548 | 7.22° C | 48% | - | 0 mm | 3.58 m/s, 42° | - | - |
| 1778162069 | 7.22° C | 50% | - | 0 mm | 1.34 m/s, 300° | - | - |
| 1778161590 | 7.22° C | 50% | - | 0 mm | 0 m/s | - | - |
| 1778161108 | 7.22° C | 57% | - | 0 mm | 0 m/s | - | - |
| 1778160629 | 7.22° C | 57% | - | 0 mm | 0 m/s | - | - |
| 1778160150 | 7.22° C | 60% | - | 0 mm | 0 m/s | - | - |
| 1778159667 | 6.67° C | 62% | - | 0 mm | 0 m/s | - | - |
| 1778159189 | 6.67° C | 62% | - | 0 mm | 1.79 m/s, 226° | - | - |
* Rain latest hour (hover to see other rain measurements)
** Current wind speed in m/s (hover to see current wind gust speed)